Location: Buch
(49.7331°N, 12.1098°E)
Time: 04:07:33
(UTC+00:00)

USA 308 - Pass Details

Date: 12 May 2021
Orbit: 568 x 576 km, 54.0° (Epoch: 10 May)

Event Time Altitude Azimuth Distance (km) Brightness Sun altitude
Rises 21:23:40 0° 293° (WNW) 2,786 7.2 -18.1°
Reaches altitude 10° 21:26:12 10° 280° (W) 1,885 6.0 -18.3°
Maximum altitude 21:29:44 26° 224° (SW) 1,162 4.2 -18.5°
Enters shadow 21:30:15 25° 212° (SSW) 1,180 4.2 -18.6°
